Flag for India Weather past 2 weeks in Ahmedabad, Gujarat, India

Now
81 °F

Passing clouds.


Feels Like: 86 °F
Forecast: 80 / 89 °F
Wind: 6 mph from West

Location: Ahmadabad Airport

Current Time: Aug 3, 2015 at 8:25:08 AM

Latest Report: Aug 3, 2015 at 5:40 AM


Visibility: 2 mi

Pressure: 29.71 "Hg

Humidity: 84%

Dew point: 75 °F

Location of AhmedabadLocation

Historic Weather in Ahmedabad — Graph

°F

Ahmedabad temperature yesterday

Maximum temperature yesterday: 88 °F (at 2:10 PM)
Minimum temperature yesterday: 81 °F (at 5:40 AM)
Average temperature yesterday: 84 °F

Past Weeks' High & Low Weather Summary

 TemperatureHumidityPressure
High95 °F (Jul 21, 1:40 PM)100% (Jul 26, 3:10 PM)29.80 "Hg (Jul 26, 3:10 PM)
Low73 °F (Jul 27, 4:40 PM)53% (Jul 19, 4:10 PM)29.45 "Hg (Jul 27, 3:10 PM)
Average84 °F79%29.59 "Hg
* Reported Jul 19 5:40 AM — Aug 3 5:40 AM, Ahmedabad, Weather by CustomWeather, © 2015

Note: Actual official high and low records may vary slightly from our data, if they occured in-between our weather recording intervals... More about our weather records

Advertising

Ahmedabad weather history for previous 24 hours

 ConditionsComfort  
Time TempWeatherWind HumidityBarometerVisibility
5:40 AM
Mon, Aug 3
81 °FPassing clouds.6 mph84%29.71 "Hg2 mi
5:10 AM81 °FPassing clouds.5 mph84%29.71 "Hg2 mi
4:40 AM81 °FHaze.6 mph84%29.71 "Hg2 mi
4:10 AM81 °FHaze.6 mph84%29.71 "Hg2 mi
3:40 AM81 °FHaze.9 mph79%29.68 "Hg2 mi
2:40 AM81 °FHaze.10 mph79%29.71 "Hg2 mi
2:10 AM82 °FHaze.9 mph74%29.71 "Hg2 mi
1:40 AM82 °FPassing clouds.10 mph74%29.74 "Hg2 mi
1:10 AM82 °FHaze.9 mph74%29.74 "Hg2 mi
9:10 PM
Sun, Aug 2
84 °FPassing clouds.3 mph62%29.71 "Hg2 mi
8:10 PM84 °FPartly cloudy.6 mph66%29.71 "Hg2 mi
7:40 PM86 °FBroken clouds.6 mph75%29.71 "Hg2 mi
6:40 PM86 °FBroken clouds.7 mph75%29.68 "Hg3 mi
6:10 PM86 °FBroken clouds.7 mph75%29.68 "Hg3 mi
5:40 PM88 °FBroken clouds.9 mph70%29.68 "Hg3 mi
5:10 PM88 °FBroken clouds.12 mph70%29.71 "Hg3 mi
4:40 PM88 °FBroken clouds.12 mph70%29.71 "Hg3 mi
4:10 PM88 °FBroken clouds.13 mph70%29.71 "Hg3 mi
3:40 PM88 °FBroken clouds.15 mph70%29.71 "Hg3 mi
3:10 PM88 °FBroken clouds.14 mph70%29.71 "Hg3 mi
2:40 PM88 °FBroken clouds.9 mph66%29.74 "Hg3 mi
2:10 PM88 °FBroken clouds.7 mph66%29.74 "Hg3 mi
1:40 PM86 °FBroken clouds.9 mph70%29.77 "Hg3 mi
1:10 PM86 °FBroken clouds.9 mph70%29.77 "Hg3 mi
12:40 PM86 °FBroken clouds.9 mph70%29.77 "Hg3 mi
12:10 PM86 °FBroken clouds.9 mph70%29.77 "Hg3 mi
11:40 AM86 °FBroken clouds.9 mph75%29.77 "Hg3 mi
11:10 AM86 °FBroken clouds.7 mph75%29.80 "Hg3 mi
10:40 AM82 °FBroken clouds.7 mph79%29.80 "Hg3 mi
9:40 AM81 °FPartly sunny.9 mph84%29.77 "Hg2 mi
8:40 AM81 °FPartly sunny.9 mph84%29.77 "Hg2 mi
8:10 AM81 °FPartly sunny.12 mph84%29.77 "Hg2 mi
Weather by CustomWeather, © 2015

See weather overviewHow to use our weather pages